Ukiah, CA

7:28 PM PST on February 19, 2017 (GMT -0800)
Ukiah Municipal

Weather History for KUKI - April, 2013

Change the Weather History Date:

Saturday, April 27, 2013

  Actual Average Record
Temperature  
Mean Temperature 66 °F 58 °F  
Max Temperature 90 °F 72 °F 92 °F (1921)
Min Temperature 41 °F 44 °F 30 °F (1955)
Degree Days  
Heating Degree Days 0 8  
Month to date heating degree days 279  
Since 1 July heating degree days 2926  
Cooling Degree Days 1 1  
Month to date cooling degree days 5  
Year to date cooling degree days 5  
Growing Degree Days 16 (Base 50)    
Moisture  
Dew Point 40 °F    
Average Humidity 47    
Maximum Humidity 83    
Minimum Humidity 10    
Precipitation  
Precipitation 0.00 in 0.07 in 2.02 in (1953)
Month to date precipitation 1.08 2.36  
Year to date precipitation 5.13 21.43  
Since 1 July precipitation 27.83  
Snow  
Snow 0.00 in - - ()
Month to date snowfall 0.0  
Since 1 July snowfall 0.0  
Snow Depth -    
Sea Level Pressure  
Sea Level Pressure 30.14 in    
Wind  
Wind Speed 2 mph (NNW)    
Max Wind Speed 13 mph    
Max Gust Speed 17 mph    
Visibility 10 miles    
Events      
T = Trace of Precipitation, MM = Missing Value Source: NWS Daily Summary

Daily Weather History Graph

Daily Weather History Graph

Search for Another Location

Airport or City:

Trip Planner

Search our weather history database for the weather conditions in past years. The results will help you decide how hot, cold, wet, or windy it might be!

Date:

Astronomy

Apr. 27, 2013 Rise Set
Actual Time 6:19 AM PDT 8:02 PM PDT
Civil Twilight 5:50 AM PDT 8:30 PM PDT
Nautical Twilight 5:15 AM PDT 9:05 PM PDT
Astronomical Twilight 4:39 AM PDT 9:42 PM PDT
Moon 10:36 PM PDT (4/27) 7:43 AM PDT (4/27)
Length of Visible Light 14h 40m
Length of Day
13h 43m
Waning Gibbous, 95% of the Moon is Illuminated
Apr 27
Waning Gibbous
May 2
Last Quarter
May 9
New
May 17
First Quarter
May 24
Full

Hourly Weather History & Observations

Time (PDT) Temp. Dew Point Humidity Pressure Visibility Wind Dir Wind Speed Gust Speed Precip Events Conditions
12:56 AM 51.1 °F 42.1 °F 71% 30.19 in 10.0 mi Calm Calm - N/A   Clear
1:56 AM 48.9 °F 42.1 °F 77% 30.18 in 10.0 mi Calm Calm - N/A   Clear
2:56 AM 46.0 °F 39.9 °F 79% 30.17 in 10.0 mi Calm Calm - N/A   Clear
3:56 AM 46.0 °F 39.9 °F 79% 30.18 in 10.0 mi Calm Calm - N/A   Clear
4:56 AM 46.0 °F 39.9 °F 79% 30.19 in 10.0 mi Calm Calm - N/A   Clear
5:56 AM 43.0 °F 37.9 °F 82% 30.19 in 10.0 mi Calm Calm - N/A   Clear
6:56 AM 44.1 °F 39.0 °F 82% 30.21 in 10.0 mi Calm Calm - N/A   Clear
7:56 AM 48.0 °F 41.0 °F 77% 30.22 in 10.0 mi Calm Calm - N/A   Clear
8:56 AM 55.9 °F 43.0 °F 62% 30.22 in 10.0 mi Calm Calm - N/A   Clear
9:56 AM 62.1 °F 43.0 °F 50% 30.20 in 10.0 mi Calm Calm - N/A   Clear
10:56 AM 71.1 °F 44.1 °F 38% 30.19 in 10.0 mi Calm Calm - N/A   Clear
11:56 AM 77.0 °F 45.0 °F 32% 30.17 in 10.0 mi Calm Calm - N/A   Clear
12:56 PM 82.0 °F 45.0 °F 27% 30.15 in 10.0 mi Variable 3.5 mph - N/A   Clear
1:56 PM 86.0 °F 39.0 °F 19% 30.12 in 10.0 mi East 3.5 mph - N/A   Clear
2:56 PM 89.1 °F 27.0 °F 11% 30.10 in 10.0 mi NNW 11.5 mph - N/A   Clear
3:56 PM 89.1 °F 36.0 °F 15% 30.08 in 10.0 mi NNW 11.5 mph 17.3 mph N/A   Clear
4:56 PM 86.0 °F 37.0 °F 18% 30.07 in 10.0 mi NW 8.1 mph - N/A   Clear
5:56 PM 82.9 °F 42.1 °F 24% 30.07 in 10.0 mi Variable 3.5 mph - N/A   Clear
6:56 PM 81.0 °F 41.0 °F 24% 30.06 in 10.0 mi North 8.1 mph - N/A   Clear
7:56 PM 78.1 °F 34.0 °F 20% 30.06 in 10.0 mi North 6.9 mph - N/A   Clear
8:56 PM 66.9 °F 39.0 °F 36% 30.07 in 10.0 mi SSW 3.5 mph - N/A   Clear
9:56 PM 63.0 °F 39.9 °F 43% 30.09 in 10.0 mi Calm Calm - N/A   Clear
10:56 PM 63.0 °F 41.0 °F 45% 30.08 in 10.0 mi Calm Calm - N/A   Clear
11:56 PM 57.0 °F 42.1 °F 57% 30.07 in 10.0 mi Calm Calm - N/A   Clear